[[{"header":{"parameterUnit":"m.s-1","parameterCategory":2,"la1":30.2991,"la2":30.254,"lo1":-89.0895,"lo2":-89.0444,"dy":0.0017,"dx":0.0017,"nx":28,"ny":28,"refTime":"2025-09-11T21:00:00:Z","depth":"0","parameterNumber":2,"parameterNumberName":"U-component_of_CURRENTS"},"data":[0,0,0,0,0,0,0,0,0,0,0,0,0,0,0,0,0,0,0,0,0,0,0,0,0,0,0,0,0,0,0,0,0,0,0,0,0,0,0,0,0,0,0,0,0,0,0,0,0,0,0,0,0,0,0,0,0,0,0.2202,0.2202,0,0.2196,0.2196,0.2196,0.218,0.218,0.2179,0.2179,0.217,0.217,0.217,0,0,0,0,0,0,0,0,0,0,0,0,0,0.2253,0.2251,0.2202,0.2202,0.2202,0.2196,0.2196,0.2196,0.218,0.218,0.2179,0.2179,0.217,0.217,0.217,0,0,0,0,0,0,0,0,0,0,0,0,0,0.2237,0.2251,0.2202,0.2194,0.2193,0.2196,0.2196,0.2196,0.218,0.218,0.2179,0.2179,0.217,0.217,0.217,0.2181,0,0,0.2171,0.2171,0,0,0,0,0,0,0,0,0.2238,0.2235,0.2195,0.2194,0.2193,0.2188,0.221,0.2191,0.218,0.2185,0.2179,0.2178,0.2176,0.2176,0.2176,0.218,0.218,0.2171,0.2171,0.2171,0.2171,0,0,0,0,0,0,0,0.2239,0.2235,0.22,0.2195,0.2194,0.2208,0.2204,0.2207,0.2183,0.2184,0.2183,0.2183,0.2176,0.2176,0.2176,0.218,0.2171,0.2171,0.2171,0.2171,0.2227,0.2229,0,0,0,0,0,0,0.2237,0.2236,0.22,0.2199,0.2215,0.2207,0.2203,0.219,0.2183,0.2182,0.2183,0.2182,0.2176,0.2175,0.2175,0.2213,0.2171,0.2171,0.2171,0.2226,0.2228,0.2229,0,0,0,0,0,0,0.2238,0.2233,0.22,0.2219,0.2215,0.2206,0.2192,0.219,0.2191,0.2182,0.2181,0.2186,0.2175,0.2175,0.2189,0.2212,0.2171,0.2171,0.2224,0.2226,0.2228,0.2273,0,0,0,0,0,0,0.2239,0.2233,0.223,0.2218,0.2214,0.2214,0.2192,0.2191,0.2192,0.219,0.2184,0.2183,0.2175,0.2189,0.2189,0.2211,0.2171,0.2222,0.2225,0.2228,0.227,0.2276,0.2282,0,0,0,0,0,0.2241,0.2239,0.223,0.2226,0.2207,0.2215,0.2215,0.2207,0.2192,0.2204,0.2198,0.2183,0.2206,0.219,0.219,0.2213,0.2221,0.2224,0.2228,0.2267,0.2275,0.2282,0,0,0,0,0,0,0.2256,0.2237,0.2227,0.2217,0.2221,0.2212,0.222,0.2211,0.2215,0.221,0.2197,0.2197,0.2222,0.2212,0.2194,0.2239,0.2213,0.2216,0.2243,0.2251,0.2257,0.2242,0.2171,0,0,0,0,0,0.2258,0.2252,0.2241,0.2236,0.2238,0.2229,0.2231,0.2225,0.2223,0.2224,0.2219,0.222,0.2236,0.2237,0.2248,0.2265,0.2262,0.2283,0.2289,0.2294,0.2284,0.2311,0.2318,0.224,0.224,0.224,0,0,0.2261,0.2251,0.2247,0.224,0.2239,0.2249,0.223,0.2235,0.2242,0.2223,0.2235,0.2244,0.2248,0.2274,0.2284,0.2266,0.2318,0.2298,0.2302,0.2289,0.2315,0.2323,0.2329,0.2242,0.2242,0.2241,0,0,0.2277,0.2258,0.2266,0.2269,0.2271,0.2267,0.227,0.2266,0.2266,0.228,0.2275,0.2294,0.2306,0.2317,0.2323,0.2368,0.2355,0.2377,0.2389,0.2417,0.2423,0.2428,0.2444,0.245,0.2374,0.2375,0.2375,0,0.2289,0.2281,0.2273,0.2285,0.2287,0.2276,0.2288,0.2291,0.2293,0.2297,0.2291,0.2325,0.2326,0.2361,0.2376,0.2381,0.2389,0.2359,0.2424,0.2429,0.2434,0.2448,0.2455,0.2377,0.2377,0.2376,0.2376,0,0.2311,0.2307,0.2314,0.2319,0.2326,0.2334,0.2334,0.2342,0.2336,0.2338,0.237,0.2381,0.2397,0.2411,0.2402,0.2444,0.2437,0.2433,0.2401,0.2444,0.2457,0.2463,0.2381,0.238,0.2379,0.2378,0,0,0.2335,0.233,0.2333,0.2331,0.234,0.2344,0.2362,0.2374,0.2377,0.2396,0.2411,0.2446,0.2446,0.2453,0.2458,0.2475,0.2518,0.2463,0.2463,0.2471,0.2574,0.2449,0.2443,0.2528,0.2529,0.253,0.2573,0,0.2357,0.2368,0.2366,0.2379,0.2382,0.2379,0.2394,0.2404,0.2408,0.2422,0.2444,0.2464,0.2465,0.2473,0.2497,0.2513,0.2534,0.2506,0.2536,0.2537,0.2415,0.2446,0.2277,0.2289,0.2578,0.2579,0.258,0,0.2379,0.2382,0.2391,0.2388,0.2391,0.24,0.2407,0.242,0.244,0.2445,0.2474,0.2485,0.2523,0.251,0.2568,0.2552,0.2562,0.2571,0.2574,0.2438,0.2421,0.2292,0.2289,0.2176,0.2589,0.2588,0.2587,0,0.2381,0.2395,0.2394,0.2396,0.24,0.2406,0.2412,0.2427,0.2432,0.2457,0.2465,0.2515,0.2535,0.257,0.2586,0.2584,0.2634,0.2639,0.2541,0.2533,0.2381,0.2356,0.2259,0.2674,0.2673,0.2673,0.2673,0,0.2388,0.239,0.2392,0.2389,0.2395,0.2403,0.241,0.2418,0.2436,0.2449,0.2476,0.2498,0.2549,0.258,0.2599,0.2577,0.2653,0.2537,0.2532,0.2392,0.2369,0.2256,0.2242,0.2675,0.2675,0.2674,0.2674,0,0.2376,0.2378,0.2378,0.2385,0.2388,0.239,0.2399,0.2405,0.2422,0.2441,0.2451,0.2496,0.2529,0.2561,0.261,0.2573,0.2471,0.2551,0.237,0.234,0.2105,0.2102,0.1959,0.1913,0.2445,0.2442,0.2439,0,0.2358,0.2359,0.2367,0.2367,0.2367,0.2373,0.2378,0.2394,0.2401,0.2441,0.2451,0.2484,0.2496,0.2501,0.2435,0.2418,0.2377,0.2237,0.2187,0.2051,0.2047,0.2002,0.1972,0.2025,0.2019,0.2015,0.2011,0,0.2335,0.2344,0.2347,0.2345,0.2348,0.2349,0.2357,0.236,0.2387,0.2392,0.2407,0.2418,0.2388,0.227,0.2208,0.2177,0.2065,0.2137,0.2054,0.1741,0.163,0.1595,0.2046,0.197,0.1974,0.1977,0.1979,0.1981,0.2321,0.2318,0.2324,0.2318,0.2321,0.2315,0.2292,0.2306,0.23,0.2273,0.2337,0.2281,0.2135,0.2007,0.195,0.1662,0.1783,0.1561,0.1584,0.1561,0.1446,0.1783,0.166,0.1662,0.1664,0.1666,0.1667,0,0.2303,0.23,0.2294,0.2278,0.2255,0.227,0.2265,0.2218,0.2182,0.2166,0.2142,0.1945,0.1746,0.1592,0.1264,0.1123,0.1095,0.1064,0.0975,0.0993,0.1325,0.1231,0.0937,0.0937,0.0937,0.0937,0.0937,0.0937,0.2293,0.2283,0.2273,0.2215,0.2193,0.2126,0.2105,0.2049,0.2007,0.1843,0.1704,0.1653,0.1401,0.1023,0.0719,0.069,0.0644,0.0553,0.0648,0.0873,0.0921,0.0968,0.0873,0.0508,0.0508,0.0226,0.0224,0.0222]},{"header":{"parameterUnit":"m.s-1","parameterCategory":2,"la1":30.2991,"la2":30.254,"lo1":-89.0895,"lo2":-89.0444,"dy":0.0017,"dx":0.0017,"nx":28,"ny":28,"refTime":"2025-09-11T21:00:00:Z","depth":"0","parameterNumber":3,"parameterNumberName":"V-component_of_CURRENTS"},"data":[0,0,0,0,0,0,0,0,0,0,0,0,0,0,0,0,0,0,0,0,0,0,0,0,0,0,0,0,0,0,0,0,0,0,0,0,0,0,0,0,0,0,0,0,0,0,0,0,0,0,0,0,0,0,0,0,0,0,-0.0239,-0.0238,0,-0.0213,-0.0213,-0.0213,-0.0204,-0.0204,-0.0204,-0.0204,-0.0241,-0.0242,-0.0243,0,0,0,0,0,0,0,0,0,0,0,0,0,-0.0281,-0.028,-0.0239,-0.0238,-0.0238,-0.0213,-0.0213,-0.0213,-0.0204,-0.0204,-0.0204,-0.0204,-0.0241,-0.0242,-0.0243,0,0,0,0,0,0,0,0,0,0,0,0,0,-0.0261,-0.028,-0.0239,-0.0229,-0.0228,-0.0213,-0.0213,-0.0213,-0.0204,-0.0204,-0.0204,-0.0204,-0.024,-0.0242,-0.0243,-0.0255,0,0,-0.0248,-0.0249,0,0,0,0,0,0,0,0,-0.0263,-0.026,-0.0231,-0.023,-0.0228,-0.021,-0.0241,-0.0229,-0.0205,-0.0216,-0.0204,-0.0204,-0.0235,-0.0237,-0.0234,-0.0257,-0.0258,-0.0248,-0.0249,-0.025,-0.025,0,0,0,0,0,0,0,-0.0264,-0.0261,-0.0231,-0.023,-0.0229,-0.0226,-0.0223,-0.0239,-0.0229,-0.0215,-0.0213,-0.0207,-0.0235,-0.0233,-0.0235,-0.0259,-0.0248,-0.0249,-0.025,-0.0251,-0.0281,-0.0281,0,0,0,0,0,0,-0.0263,-0.0262,-0.0231,-0.023,-0.0243,-0.0225,-0.0222,-0.0218,-0.0227,-0.0228,-0.0207,-0.0207,-0.023,-0.0234,-0.0237,-0.0239,-0.025,-0.0251,-0.0252,-0.0281,-0.0281,-0.0281,0,0,0,0,0,0,-0.0264,-0.0261,-0.0232,-0.0244,-0.024,-0.0224,-0.0219,-0.0217,-0.0213,-0.0221,-0.0223,-0.0204,-0.023,-0.0235,-0.0245,-0.0241,-0.0252,-0.0253,-0.0281,-0.0281,-0.0281,-0.0252,0,0,0,0,0,0,-0.0265,-0.0261,-0.0261,-0.0244,-0.0239,-0.0222,-0.0219,-0.0217,-0.0208,-0.0207,-0.0219,-0.0222,-0.0231,-0.0243,-0.0247,-0.0244,-0.0254,-0.0281,-0.0281,-0.0281,-0.0253,-0.0251,-0.0249,0,0,0,0,0,-0.0267,-0.0266,-0.0261,-0.0258,-0.0238,-0.0221,-0.0219,-0.0209,-0.0208,-0.0205,-0.0211,-0.0222,-0.0244,-0.0244,-0.0248,-0.0246,-0.0281,-0.0281,-0.0281,-0.0254,-0.0252,-0.0249,0,0,0,0,0,0,-0.0283,-0.0264,-0.0259,-0.0252,-0.0236,-0.0219,-0.0216,-0.0208,-0.021,-0.0212,-0.0222,-0.0226,-0.0233,-0.0245,-0.0244,-0.0253,-0.0264,-0.0264,-0.0242,-0.024,-0.0238,-0.0221,-0.0256,0,0,0,0,0,-0.0286,-0.0282,-0.0261,-0.0255,-0.0248,-0.0233,-0.0226,-0.0216,-0.0212,-0.0212,-0.0218,-0.0227,-0.0235,-0.0242,-0.0252,-0.026,-0.0249,-0.0261,-0.0259,-0.0257,-0.0246,-0.0231,-0.0226,-0.028,-0.028,-0.028,0,0,-0.0291,-0.028,-0.0277,-0.0258,-0.0248,-0.0233,-0.0229,-0.0216,-0.0203,-0.0218,-0.0211,-0.0222,-0.0236,-0.024,-0.0244,-0.0249,-0.0234,-0.0256,-0.0254,-0.0245,-0.023,-0.0224,-0.0219,-0.0279,-0.0279,-0.0279,0,0,-0.0294,-0.0287,-0.0283,-0.0269,-0.025,-0.0237,-0.0232,-0.0213,-0.0205,-0.0199,-0.0205,-0.0209,-0.0225,-0.0225,-0.0231,-0.0225,-0.0223,-0.0234,-0.021,-0.0195,-0.019,-0.0186,-0.0153,-0.0146,-0.0233,-0.0233,-0.0233,0,-0.0302,-0.0289,-0.0279,-0.0268,-0.0253,-0.0237,-0.0222,-0.0211,-0.0197,-0.0185,-0.0195,-0.0195,-0.0213,-0.0205,-0.0205,-0.0219,-0.0205,-0.0218,-0.0191,-0.0186,-0.0182,-0.015,-0.0142,-0.0231,-0.0232,-0.0232,-0.0232,0,-0.0296,-0.0285,-0.0281,-0.026,-0.0244,-0.023,-0.0206,-0.0192,-0.0182,-0.0166,-0.0153,-0.0168,-0.0164,-0.0175,-0.0192,-0.0173,-0.0169,-0.0189,-0.0194,-0.0175,-0.0142,-0.0135,-0.0229,-0.023,-0.023,-0.0231,0,0,-0.0315,-0.0284,-0.0281,-0.0263,-0.0237,-0.0218,-0.0197,-0.0164,-0.0136,-0.0131,-0.0094,-0.0117,-0.0115,-0.0121,-0.0137,-0.013,-0.0095,-0.0148,-0.0148,-0.0108,-0.0044,-0.0031,-0.0021,-0.0111,-0.011,-0.0109,-0.0027,0,-0.0313,-0.0285,-0.0271,-0.024,-0.0221,-0.0196,-0.017,-0.0139,-0.0116,-0.0077,-0.0076,-0.0058,-0.0097,-0.0092,-0.009,-0.0092,-0.0076,-0.0114,-0.0074,-0.0072,-0.0058,-0.0013,0.0027,0.0104,-0.002,-0.0019,-0.0018,0,-0.0307,-0.0289,-0.0258,-0.0213,-0.0202,-0.0182,-0.0125,-0.01,-0.0048,-0.0029,-0.0005,0.0001,0.002,-0.002,0.0001,-0.0021,-0.0028,-0.0033,-0.003,-0.0022,-0.0046,0.0061,0.0122,0.0109,-0.0007,-0.0008,-0.0009,0,-0.0307,-0.0275,-0.0246,-0.0233,-0.0186,-0.0164,-0.0135,-0.0085,-0.0046,0.0008,0.0046,0.0065,0.0094,0.008,0.0069,0.0038,0.0102,0.0057,0.0069,0.007,0.0112,0.0115,0.0171,0.0077,0.0077,0.0076,0.0076,0,-0.03,-0.0279,-0.0243,-0.0226,-0.018,-0.0156,-0.0097,-0.0064,-0.0004,0.0065,0.0071,0.0136,0.0119,0.0153,0.0116,0.0134,0.0142,0.0095,0.0096,0.0123,0.0126,0.012,0.0095,0.0079,0.0079,0.0078,0.0078,0,-0.0299,-0.0278,-0.0239,-0.0194,-0.0175,-0.0139,-0.0067,-0.0018,0.0023,0.0117,0.0139,0.021,0.0264,0.025,0.0259,0.0213,0.0216,0.0207,0.0251,0.0254,0.023,0.0205,0.0272,0.027,0.0238,0.0239,0.0239,0,-0.0292,-0.0272,-0.0213,-0.0175,-0.0153,-0.01,-0.0049,-0.0002,0.0057,0.0172,0.023,0.0312,0.0407,0.0435,0.0381,0.0356,0.0296,0.0337,0.027,0.0259,0.0232,0.021,0.0201,0.0346,0.0347,0.0349,0.035,0,-0.0274,-0.0252,-0.0216,-0.0141,-0.0086,-0.0022,0.0047,0.0094,0.0171,0.0257,0.0391,0.0477,0.0536,0.0577,0.0532,0.0476,0.0343,0.036,0.0342,0.0325,0.0314,0.0303,0.0268,0.0361,0.036,0.0359,0.0358,0.0358,-0.0253,-0.0219,-0.016,-0.009,-0.0022,0.0059,0.0117,0.0206,0.0314,0.0473,0.0523,0.0697,0.0725,0.0697,0.0614,0.0484,0.0449,0.0429,0.0405,0.0388,0.0372,0.0367,0.0453,0.0453,0.0452,0.0452,0.0451,0,-0.0215,-0.0173,-0.0105,-0.0015,0.0064,0.0088,0.0193,0.0266,0.0409,0.0599,0.0736,0.0895,0.0894,0.0817,0.0657,0.0557,0.0491,0.0489,0.0469,0.0458,0.0464,0.0451,0.0549,0.0549,0.0549,0.0549,0.0549,0.0549,-0.0186,-0.012,-0.0086,0.0044,0.0109,0.0212,0.0271,0.0395,0.054,0.0803,0.0976,0.1094,0.1053,0.0816,0.0639,0.0579,0.0514,0.0505,0.0456,0.0453,0.0445,0.0438,0.0421,0.0511,0.0511,0.0473,0.0473,0.0473]}],[{"header":{"parameterUnit":"m.s-1","parameterCategory":2,"la1":30.2991,"la2":30.254,"lo1":-89.0895,"lo2":-89.0444,"dy":0.0017,"dx":0.0017,"nx":28,"ny":28,"refTime":"2025-09-11T21:00:00:Z","depth":"2","parameterNumber":2,"parameterNumberName":"U-component_of_CURRENTS"},"data":[0,0,0,0,0,0,0,0,0,0,0,0,0,0,0,0,0,0,0,0,0,0,0,0,0,0,0,0,0,0,0,0,0,0,0,0,0,0,0,0,0,0,0,0,0,0,0,0,0,0,0,0,0,0,0,0,0,0,0.1262,0.1262,0,0.1298,0.1299,0.1299,0.1319,0.1319,0.1319,0.1318,0.1327,0.1327,0.1328,0,0,0,0,0,0,0,0,0,0,0,0,0,0.1275,0.1274,0.1262,0.1262,0.1262,0.1298,0.1299,0.1299,0.1319,0.1319,0.1318,0.1318,0.1327,0.1327,0.1328,0,0,0,0,0,0,0,0,0,0,0,0,0,0.1288,0.1274,0.1262,0.1275,0.1276,0.1298,0.1299,0.13,0.1319,0.1319,0.1318,0.1318,0.1327,0.1327,0.1328,0.1337,0,0,0.133,0.133,0,0,0,0,0,0,0,0,0.1287,0.1288,0.1273,0.1274,0.1275,0.1301,0.1306,0.131,0.1319,0.1305,0.1318,0.1318,0.1314,0.1316,0.1328,0.1338,0.1338,0.133,0.133,0.133,0.1331,0,0,0,0,0,0,0,0.1286,0.1287,0.1279,0.1273,0.1274,0.13,0.1301,0.1308,0.1313,0.1307,0.1307,0.1307,0.1315,0.1327,0.1328,0.1338,0.133,0.133,0.1331,0.1331,0.1411,0.1413,0,0,0,0,0,0,0.1273,0.1285,0.1278,0.128,0.1277,0.13,0.1301,0.1295,0.1313,0.1315,0.1307,0.1308,0.1326,0.1327,0.1328,0.1381,0.133,0.1331,0.1331,0.1409,0.1411,0.1413,0,0,0,0,0,0,0.1273,0.1272,0.1276,0.1282,0.1284,0.1299,0.1293,0.1296,0.1314,0.1314,0.1315,0.1322,0.1326,0.1327,0.134,0.138,0.1331,0.1332,0.1407,0.141,0.1412,0.1461,0,0,0,0,0,0,0.1273,0.1272,0.1278,0.1281,0.1283,0.1293,0.1293,0.1297,0.1313,0.1314,0.1327,0.1327,0.1326,0.1339,0.134,0.138,0.1332,0.1405,0.1408,0.1412,0.1457,0.1465,0.1472,0,0,0,0,0,0.1274,0.1275,0.1277,0.1277,0.1285,0.1293,0.1297,0.1309,0.1314,0.1325,0.1333,0.1327,0.1362,0.134,0.1341,0.1382,0.1403,0.1407,0.1411,0.1454,0.1463,0.1471,0,0,0,0,0,0,0.1285,0.1276,0.128,0.1279,0.1288,0.1295,0.131,0.1315,0.1332,0.134,0.1336,0.1337,0.1363,0.1367,0.1343,0.1418,0.1388,0.1392,0.142,0.1429,0.1436,0.1433,0.1333,0,0,0,0,0,0.1289,0.1285,0.1286,0.1287,0.1294,0.1305,0.1315,0.1323,0.1332,0.134,0.1352,0.1369,0.1382,0.1397,0.1405,0.1442,0.1434,0.1475,0.1482,0.1488,0.1489,0.1493,0.15,0.1426,0.1426,0.1426,0,0,0.1292,0.1288,0.1286,0.129,0.1301,0.1314,0.1311,0.1329,0.1345,0.1338,0.1372,0.1385,0.1393,0.1432,0.1448,0.1441,0.1512,0.1494,0.1498,0.1496,0.1498,0.1505,0.1511,0.1429,0.1429,0.1428,0,0,0.1296,0.1296,0.1299,0.1312,0.1328,0.133,0.1335,0.1356,0.1373,0.1398,0.1404,0.1434,0.146,0.1481,0.149,0.1543,0.1538,0.1565,0.1612,0.1617,0.1622,0.1627,0.1647,0.1653,0.1583,0.1583,0.1583,0,0.1313,0.1303,0.1304,0.1321,0.1337,0.1336,0.1358,0.1369,0.1395,0.1415,0.1413,0.1478,0.1479,0.1533,0.1558,0.1558,0.1567,0.1575,0.1624,0.1628,0.1632,0.1651,0.1657,0.1586,0.1586,0.1585,0.1585,0,0.1313,0.1324,0.1329,0.1343,0.1366,0.1379,0.1397,0.1416,0.1433,0.1453,0.151,0.1529,0.1567,0.1591,0.1587,0.1643,0.1643,0.1618,0.1596,0.1642,0.166,0.1666,0.159,0.1589,0.1588,0.1587,0,0,0.1316,0.1327,0.1334,0.1351,0.1382,0.1397,0.1424,0.1451,0.1466,0.1517,0.156,0.1607,0.1633,0.1647,0.1671,0.1695,0.1732,0.1683,0.1682,0.1693,0.1764,0.1666,0.1662,0.172,0.172,0.1721,0.1773,0,0.1323,0.1342,0.1356,0.139,0.1405,0.143,0.1452,0.1486,0.1506,0.1543,0.1596,0.164,0.1651,0.1686,0.171,0.1719,0.1746,0.1722,0.1726,0.1726,0.1624,0.1664,0.1506,0.153,0.1777,0.1778,0.1779,0,0.1325,0.1337,0.1365,0.1408,0.1421,0.1445,0.1486,0.1516,0.1561,0.158,0.1644,0.1675,0.1746,0.1729,0.1784,0.1773,0.1773,0.178,0.1782,0.1671,0.1636,0.1521,0.1529,0.1787,0.1786,0.1786,0.1785,0,0.1311,0.1351,0.1368,0.1385,0.1426,0.1456,0.1491,0.1536,0.1559,0.1622,0.1637,0.1719,0.1762,0.1784,0.1797,0.1798,0.1834,0.1824,0.1745,0.174,0.1594,0.1572,0.1846,0.1846,0.1846,0.1846,0.1845,0,0.1304,0.1329,0.1362,0.137,0.1405,0.1465,0.1505,0.1532,0.1585,0.1613,0.1671,0.17,0.1774,0.1801,0.181,0.1788,0.1838,0.1757,0.1741,0.1609,0.1589,0.1795,0.1788,0.1848,0.1847,0.1847,0.1846,0,0.1294,0.1306,0.133,0.1374,0.1394,0.1434,0.1505,0.1522,0.1573,0.161,0.1638,0.1701,0.1737,0.1781,0.182,0.1788,0.1784,0.176,0.1608,0.1572,0.1696,0.1692,0.1696,0.1693,0.169,0.1688,0.1686,0,0.1281,0.1287,0.1324,0.1336,0.1361,0.1421,0.1445,0.1509,0.1538,0.1598,0.1616,0.167,0.1662,0.1681,0.1661,0.1653,0.1726,0.1499,0.1453,0.1694,0.1679,0.1679,0.1678,0.1304,0.1299,0.1295,0.1292,0,0.126,0.1273,0.1281,0.1308,0.1334,0.1361,0.1421,0.142,0.1492,0.1504,0.1518,0.1514,0.1532,0.1444,0.1431,0.1412,0.1486,0.1415,0.1703,0.1349,0.1323,0.1308,0.1321,0.1256,0.126,0.1263,0.1265,0.1266,0.1239,0.124,0.1246,0.1272,0.1294,0.1292,0.1284,0.1324,0.1325,0.1315,0.1378,0.131,0.1316,0.12,0.1155,0.1139,0.126,0.1203,0.1217,0.1234,0.1162,0.113,0.1017,0.1019,0.1021,0.1022,0.1024,0,0.1211,0.1222,0.1218,0.122,0.1207,0.1255,0.1255,0.1208,0.1169,0.1166,0.1148,0.0986,0.09,0.0925,0.0826,0.0811,0.0822,0.0787,0.0793,0.0828,0.0859,0.0769,0.0519,0.0518,0.0517,0.0516,0,0,0.1196,0.1171,0.1156,0.112,0.1137,0.1083,0.1059,0.0997,0.0968,0.0861,0.0814,0.0844,0.0862,0.0675,0.0647,0.0566,0.0698,0.0537,0.0938,0.0979,0.1009,0.109,0.0989,0,0,0,0,0]},{"header":{"parameterUnit":"m.s-1","parameterCategory":2,"la1":30.2991,"la2":30.254,"lo1":-89.0895,"lo2":-89.0444,"dy":0.0017,"dx":0.0017,"nx":28,"ny":28,"refTime":"2025-09-11T21:00:00:Z","depth":"2","parameterNumber":3,"parameterNumberName":"V-component_of_CURRENTS"},"data":[0,0,0,0,0,0,0,0,0,0,0,0,0,0,0,0,0,0,0,0,0,0,0,0,0,0,0,0,0,0,0,0,0,0,0,0,0,0,0,0,0,0,0,0,0,0,0,0,0,0,0,0,0,0,0,0,0,0,0.0304,0.0304,0,0.0311,0.0311,0.0311,0.0297,0.0297,0.0297,0.0297,0.0274,0.0274,0.0273,0,0,0,0,0,0,0,0,0,0,0,0,0,0.0254,0.0255,0.0304,0.0304,0.0304,0.0311,0.0311,0.0311,0.0297,0.0297,0.0297,0.0297,0.0274,0.0274,0.0273,0,0,0,0,0,0,0,0,0,0,0,0,0,0.0268,0.0256,0.0304,0.03,0.03,0.0311,0.0311,0.0311,0.0297,0.0297,0.0297,0.0296,0.0274,0.0274,0.0273,0.0276,0,0,0.0271,0.0271,0,0,0,0,0,0,0,0,0.0267,0.0269,0.03,0.0301,0.0301,0.0305,0.0285,0.0299,0.0298,0.0296,0.0297,0.0296,0.0283,0.0282,0.0281,0.0275,0.0274,0.0271,0.0271,0.0271,0.027,0,0,0,0,0,0,0,0.0266,0.0269,0.0304,0.0301,0.0301,0.0291,0.0292,0.0288,0.0289,0.0296,0.0296,0.0301,0.0283,0.0282,0.028,0.0274,0.0271,0.0271,0.027,0.027,0.0266,0.0267,0,0,0,0,0,0,0.0272,0.0268,0.0304,0.0305,0.0285,0.0292,0.0293,0.0302,0.029,0.0288,0.0301,0.03,0.0283,0.0281,0.028,0.0292,0.0271,0.027,0.027,0.0266,0.0266,0.0267,0,0,0,0,0,0,0.0271,0.0275,0.0304,0.0288,0.0291,0.0294,0.0303,0.0302,0.0298,0.0294,0.0292,0.0297,0.0283,0.028,0.0281,0.0291,0.027,0.0269,0.0266,0.0266,0.0267,0.0311,0,0,0,0,0,0,0.027,0.0275,0.028,0.0289,0.0293,0.0315,0.0304,0.0303,0.0303,0.0302,0.029,0.0288,0.0282,0.0282,0.0281,0.0289,0.0269,0.0265,0.0266,0.0266,0.0309,0.0312,0.0316,0,0,0,0,0,0.0268,0.0281,0.028,0.0284,0.03,0.0316,0.0316,0.0315,0.0303,0.0307,0.03,0.0288,0.0284,0.0282,0.028,0.0289,0.0265,0.0266,0.0266,0.0307,0.0312,0.0316,0,0,0,0,0,0,0.0261,0.0282,0.028,0.0298,0.0307,0.0314,0.0318,0.0314,0.0311,0.0306,0.0295,0.0293,0.0299,0.0285,0.0283,0.0288,0.0271,0.0271,0.0303,0.0307,0.031,0.0318,0.0268,0,0,0,0,0,0.0263,0.0279,0.0292,0.0306,0.031,0.0311,0.0314,0.0315,0.0316,0.0314,0.0309,0.03,0.03,0.0296,0.0295,0.0296,0.0281,0.0298,0.0302,0.0305,0.0309,0.0298,0.0302,0.0269,0.0269,0.0269,0,0,0.0262,0.0278,0.0285,0.0306,0.0309,0.0326,0.0311,0.0321,0.0334,0.0312,0.0323,0.0314,0.0304,0.0312,0.0312,0.0301,0.0305,0.0305,0.0308,0.0311,0.0299,0.0303,0.0306,0.0269,0.0269,0.0269,0,0,0.0278,0.0284,0.0302,0.0313,0.0327,0.0333,0.0336,0.0344,0.0344,0.0355,0.0344,0.0342,0.0338,0.0337,0.0335,0.0353,0.0326,0.0345,0.0366,0.0356,0.0359,0.0361,0.0342,0.0342,0.0343,0.0343,0.0343,0,0.0274,0.0306,0.0309,0.0329,0.0342,0.0338,0.0358,0.0363,0.0371,0.0377,0.0364,0.0365,0.0354,0.0367,0.0371,0.0362,0.0345,0.0354,0.0361,0.0363,0.0365,0.0345,0.0344,0.0345,0.0345,0.0345,0.0345,0,0.0309,0.0328,0.034,0.0368,0.0378,0.0397,0.0406,0.0418,0.0416,0.0419,0.0428,0.0415,0.0414,0.0408,0.0394,0.0401,0.0381,0.0371,0.0354,0.0371,0.0348,0.0347,0.0348,0.0348,0.0347,0.0346,0,0,0.0315,0.0357,0.036,0.0379,0.0402,0.0417,0.0441,0.0466,0.0483,0.048,0.05,0.049,0.0473,0.0467,0.0448,0.0435,0.0428,0.0405,0.0404,0.0391,0.0395,0.0394,0.0392,0.0416,0.0416,0.0416,0.0374,0,0.0341,0.0393,0.0403,0.0444,0.0469,0.0475,0.0503,0.0519,0.0524,0.0543,0.0526,0.0534,0.0497,0.0495,0.0478,0.0449,0.0427,0.0439,0.0377,0.0375,0.0375,0.0392,0.0407,0.0371,0.0373,0.0372,0.0372,0,0.0373,0.0406,0.0453,0.0494,0.0503,0.0524,0.0564,0.0585,0.0605,0.0607,0.0605,0.0588,0.0578,0.0541,0.0492,0.0499,0.0447,0.0416,0.0413,0.0397,0.0372,0.0354,0.0369,0.037,0.037,0.037,0.0371,0,0.0389,0.0438,0.048,0.0494,0.0539,0.0559,0.058,0.0604,0.0631,0.0644,0.0661,0.0638,0.0633,0.0576,0.0507,0.0496,0.0449,0.0427,0.0374,0.0373,0.0366,0.0365,0.0383,0.0383,0.0383,0.0383,0.0383,0,0.042,0.0449,0.0492,0.0515,0.0565,0.0578,0.0625,0.0644,0.0677,0.0714,0.0687,0.0709,0.0639,0.0604,0.0529,0.0456,0.0463,0.0383,0.0367,0.0381,0.0382,0.0365,0.0364,0.0382,0.0382,0.0382,0.0383,0,0.0429,0.046,0.0509,0.0559,0.0575,0.0606,0.066,0.0698,0.0717,0.0765,0.0773,0.0765,0.0723,0.0647,0.0562,0.049,0.0418,0.0382,0.0401,0.0388,0.0338,0.034,0.0323,0.0323,0.0323,0.0323,0.0322,0,0.0442,0.0471,0.0533,0.0565,0.0587,0.0636,0.0678,0.0717,0.0758,0.0802,0.0832,0.0809,0.0802,0.0683,0.0568,0.045,0.042,0.0367,0.0352,0.0349,0.0335,0.0336,0.0338,0.0353,0.0353,0.0353,0.0353,0,0.0466,0.0486,0.0526,0.0589,0.0637,0.0696,0.0752,0.0799,0.0849,0.0887,0.0928,0.0925,0.0824,0.0722,0.0564,0.048,0.0393,0.0365,0.0364,0.0371,0.0375,0.0362,0.0362,0.0354,0.0354,0.0354,0.0354,0.0354,0.0477,0.0505,0.0558,0.0611,0.0672,0.0746,0.0802,0.0864,0.0936,0.0989,0.0988,0.096,0.0857,0.0652,0.0534,0.0397,0.0404,0.0337,0.0337,0.0337,0.0354,0.0358,0.0335,0.0335,0.0335,0.0335,0.0335,0,0.0494,0.0521,0.0577,0.0652,0.0718,0.0746,0.0847,0.0905,0.0987,0.1004,0.1026,0.0892,0.0789,0.0653,0.0467,0.0362,0.0346,0.0308,0.0319,0.032,0.0321,0.0336,0.0313,0.0312,0.0312,0.0311,0,0,0.0503,0.055,0.0575,0.0671,0.0725,0.0821,0.0881,0.0958,0.0993,0.1006,0.0963,0.0943,0.0798,0.0648,0.0525,0.0419,0.0383,0.0386,0.0419,0.045,0.0451,0.0357,0.0386,0,0,0,0,0]}],[{"header":{"parameterUnit":"m.s-1","parameterCategory":2,"la1":30.2991,"la2":30.254,"lo1":-89.0895,"lo2":-89.0444,"dy":0.0017,"dx":0.0017,"nx":28,"ny":28,"refTime":"2025-09-11T21:00:00:Z","depth":"4","parameterNumber":2,"parameterNumberName":"U-component_of_CURRENTS"},"data":[0,0,0,0,0,0,0,0,0,0,0,0,0,0,0,0,0,0,0,0,0,0,0,0,0,0,0,0,0,0,0,0,0,0,0,0,0,0,0,0,0,0,0,0,0,0,0,0,0,0,0,0,0,0,0,0,0,0,0.0498,0.0498,0,0.0479,0.0479,0.0478,0.0494,0.0495,0.0496,0.0497,0.0547,0.0547,0.0548,0,0,0,0,0,0,0,0,0,0,0,0,0,0.0502,0.0502,0.0498,0.0498,0.0498,0.048,0.0479,0.0478,0.0494,0.0495,0.0496,0.0497,0.0547,0.0547,0.0548,0,0,0,0,0,0,0,0,0,0,0,0,0,0.049,0.0502,0.0498,0.0506,0.0507,0.048,0.0479,0.0478,0.0494,0.0495,0.0497,0.0498,0.0546,0.0547,0.0548,0.0522,0,0,0.055,0.055,0,0,0,0,0,0,0,0,0.0491,0.049,0.0505,0.0506,0.0507,0.0494,0.0499,0.0498,0.0493,0.0495,0.0497,0.0499,0.0537,0.0538,0.0525,0.0525,0.0527,0.055,0.055,0.055,0.055,0,0,0,0,0,0,0,0.0492,0.049,0.0487,0.0505,0.0506,0.0496,0.0496,0.0498,0.0506,0.0495,0.0497,0.05,0.0537,0.0524,0.0527,0.0527,0.055,0.055,0.0551,0.0551,0.0604,0.0605,0,0,0,0,0,0,0.0502,0.0491,0.0488,0.0487,0.0506,0.0495,0.0495,0.0493,0.0505,0.0508,0.0499,0.0501,0.0523,0.0526,0.0529,0.0575,0.055,0.0551,0.0551,0.0603,0.0605,0.0606,0,0,0,0,0,0,0.0502,0.0501,0.0489,0.0492,0.049,0.0494,0.0492,0.0492,0.05,0.0508,0.0512,0.0509,0.0524,0.0528,0.056,0.0574,0.0551,0.0552,0.0602,0.0604,0.0605,0.0619,0,0,0,0,0,0,0.0502,0.0501,0.0506,0.0492,0.049,0.0486,0.0491,0.0491,0.05,0.0503,0.0517,0.0522,0.0525,0.0559,0.0561,0.0575,0.0552,0.0601,0.0603,0.0605,0.0617,0.062,0.0623,0,0,0,0,0,0.0502,0.0501,0.0506,0.0506,0.0495,0.0487,0.0484,0.0489,0.0499,0.0501,0.0524,0.0523,0.0573,0.056,0.0562,0.0576,0.06,0.0602,0.0605,0.0615,0.062,0.0623,0,0,0,0,0,0,0.0505,0.0503,0.0508,0.0507,0.0505,0.0491,0.0495,0.0496,0.051,0.0525,0.0532,0.0538,0.0571,0.0574,0.056,0.06,0.0587,0.059,0.0595,0.0599,0.0603,0.0605,0.0553,0,0,0,0,0,0.0508,0.0509,0.0505,0.0506,0.0508,0.0503,0.0502,0.0508,0.0517,0.0524,0.0539,0.056,0.0575,0.059,0.0602,0.062,0.0634,0.0633,0.0636,0.0639,0.0644,0.069,0.0698,0.0613,0.0613,0.0613,0,0,0.0509,0.051,0.051,0.0508,0.0507,0.0507,0.0506,0.0513,0.0524,0.0528,0.0558,0.0571,0.0583,0.0608,0.0623,0.0617,0.0669,0.0642,0.0644,0.0648,0.0693,0.0702,0.0709,0.0615,0.0615,0.0615,0,0,0.0508,0.0515,0.0514,0.0515,0.0523,0.052,0.0528,0.053,0.0546,0.0569,0.058,0.0601,0.0627,0.0634,0.0641,0.0669,0.0684,0.0682,0.0701,0.0746,0.0753,0.076,0.0778,0.0787,0.0685,0.0685,0.0685,0,0.0513,0.0509,0.0512,0.0514,0.0519,0.053,0.0532,0.0544,0.0561,0.0583,0.059,0.0634,0.0635,0.0664,0.0674,0.0675,0.0704,0.0681,0.075,0.0757,0.0763,0.0781,0.079,0.0686,0.0686,0.0686,0.0686,0,0.0504,0.051,0.0512,0.0519,0.0524,0.053,0.0548,0.0572,0.0596,0.0612,0.0659,0.0665,0.0695,0.0695,0.0691,0.0737,0.0744,0.0747,0.0737,0.0773,0.0789,0.0798,0.0687,0.0687,0.0687,0.0687,0,0,0.0495,0.0502,0.0507,0.0515,0.053,0.0535,0.0566,0.0593,0.0628,0.0658,0.0698,0.0715,0.0734,0.0743,0.0745,0.0773,0.0826,0.0785,0.0787,0.0799,0.0925,0.0826,0.0826,0.0857,0.0859,0.086,0.0914,0,0.049,0.0491,0.0499,0.0514,0.0517,0.0545,0.0571,0.0608,0.0647,0.0694,0.072,0.0759,0.0751,0.0771,0.0801,0.0819,0.0854,0.0811,0.0894,0.0896,0.0799,0.0834,0.0867,0.0921,0.0923,0.0924,0.0925,0,0.0479,0.0483,0.0488,0.0518,0.0524,0.0542,0.0598,0.0624,0.0692,0.0731,0.0783,0.0809,0.0847,0.0839,0.0905,0.0889,0.0916,0.0927,0.0929,0.0839,0.0813,0.0882,0.0942,0.094,0.0939,0.0938,0.0937,0,0.0466,0.0482,0.0487,0.0495,0.0525,0.0552,0.0578,0.0641,0.0678,0.0762,0.0801,0.0861,0.0891,0.0942,0.0958,0.0954,0.1027,0.1022,0.0958,0.0951,0.1018,0.1011,0.1088,0.1088,0.1088,0.1087,0.1087,0,0.0453,0.0463,0.0488,0.0494,0.0522,0.0551,0.0598,0.0645,0.0712,0.0755,0.0823,0.086,0.0927,0.0968,0.0988,0.0989,0.1058,0.0966,0.0964,0.102,0.1013,0.1024,0.1015,0.1089,0.1089,0.1089,0.1088,0,0.0435,0.0447,0.0461,0.0499,0.0514,0.0539,0.0599,0.0634,0.0708,0.0766,0.0794,0.0878,0.0928,0.0971,0.1037,0.1009,0.1025,0.1015,0.1061,0.106,0.0915,0.0907,0.0952,0.0949,0.0947,0.0944,0.0943,0,0.0418,0.0422,0.0461,0.0473,0.0492,0.0532,0.0558,0.0629,0.0659,0.0762,0.0778,0.0858,0.0903,0.0914,0.0966,0.0996,0.0988,0.0986,0.0957,0.091,0.0904,0.09,0.0896,0.0939,0.0938,0.0937,0.0937,0,0.039,0.0413,0.0428,0.0448,0.0477,0.0495,0.0535,0.0554,0.0631,0.0707,0.0747,0.0781,0.0829,0.0864,0.0891,0.0911,0.0976,0.096,0.0966,0.0938,0.0894,0.089,0.0889,0.0928,0.0929,0.093,0.0931,0,0.0377,0.0382,0.0403,0.042,0.0443,0.0442,0.0474,0.0502,0.054,0.0648,0.0657,0.0744,0.0816,0.0821,0.0845,0.0851,0.0842,0.0811,0.0824,0.0834,0.0768,0.0693,0.0669,0,0,0,0,0,0.0359,0.0358,0.0368,0.0375,0.0391,0.0404,0.0444,0.0477,0.0553,0.056,0.0606,0.0648,0.069,0.0731,0.0715,0.0791,0.0842,0.0768,0.0812,0.088,0.089,0.0822,0,0,0,0,0,0,0.0346,0.0356,0.0354,0.0326,0.0323,0.0332,0.0358,0.0413,0.0413,0.05,0.0527,0.0593,0.0644,0.0694,0.07,0.0712,0.072,0.0819,0.0816,0.0874,0.0883,0.0891,0.0825,0,0,0,0,0]},{"header":{"parameterUnit":"m.s-1","parameterCategory":2,"la1":30.2991,"la2":30.254,"lo1":-89.0895,"lo2":-89.0444,"dy":0.0017,"dx":0.0017,"nx":28,"ny":28,"refTime":"2025-09-11T21:00:00:Z","depth":"4","parameterNumber":3,"parameterNumberName":"V-component_of_CURRENTS"},"data":[0,0,0,0,0,0,0,0,0,0,0,0,0,0,0,0,0,0,0,0,0,0,0,0,0,0,0,0,0,0,0,0,0,0,0,0,0,0,0,0,0,0,0,0,0,0,0,0,0,0,0,0,0,0,0,0,0,0,0.0301,0.0301,0,0.0321,0.0321,0.0321,0.0337,0.0337,0.0337,0.0337,0.0341,0.0341,0.0341,0,0,0,0,0,0,0,0,0,0,0,0,0,0.0269,0.0269,0.0301,0.0301,0.0302,0.0321,0.0321,0.0321,0.0337,0.0337,0.0337,0.0337,0.0341,0.0341,0.0341,0,0,0,0,0,0,0,0,0,0,0,0,0,0.0286,0.027,0.0301,0.0311,0.0312,0.0321,0.0321,0.0322,0.0337,0.0337,0.0337,0.0337,0.0341,0.0341,0.0341,0.0338,0,0,0.0341,0.0341,0,0,0,0,0,0,0,0,0.0285,0.0287,0.031,0.0311,0.0312,0.0326,0.0311,0.0326,0.0337,0.0329,0.0337,0.0338,0.0334,0.0334,0.0339,0.0338,0.0339,0.0341,0.0341,0.0341,0.0341,0,0,0,0,0,0,0,0.0284,0.0286,0.031,0.031,0.0311,0.0311,0.0314,0.0314,0.033,0.0329,0.033,0.0331,0.0334,0.0339,0.0339,0.0339,0.0341,0.0341,0.0341,0.0341,0.0347,0.0348,0,0,0,0,0,0,0.028,0.0285,0.0309,0.031,0.0297,0.0312,0.0315,0.0322,0.0331,0.0332,0.0331,0.0332,0.0339,0.0339,0.0339,0.0356,0.0341,0.0341,0.0341,0.0347,0.0347,0.0348,0,0,0,0,0,0,0.0279,0.0282,0.0308,0.0297,0.03,0.0312,0.032,0.0322,0.0332,0.0332,0.0333,0.0338,0.0339,0.0339,0.0346,0.0356,0.0341,0.0341,0.0347,0.0347,0.0348,0.0378,0,0,0,0,0,0,0.0278,0.0282,0.029,0.0297,0.0301,0.0319,0.032,0.0322,0.0331,0.0333,0.0339,0.0339,0.0339,0.0347,0.0347,0.0356,0.0341,0.0347,0.0347,0.0347,0.0377,0.0379,0.0381,0,0,0,0,0,0.0277,0.0288,0.029,0.0293,0.031,0.0319,0.0322,0.0331,0.0331,0.0339,0.0343,0.0339,0.0348,0.0347,0.0347,0.0356,0.0347,0.0347,0.0347,0.0376,0.0379,0.0381,0,0,0,0,0,0,0.0277,0.029,0.0293,0.0307,0.0315,0.0322,0.0331,0.0333,0.0342,0.0346,0.0343,0.0344,0.0354,0.0348,0.0346,0.0357,0.0346,0.0346,0.0367,0.037,0.0372,0.0377,0.0341,0,0,0,0,0,0.028,0.0293,0.0301,0.0313,0.0317,0.0324,0.0329,0.0335,0.0342,0.0347,0.035,0.0352,0.0354,0.0357,0.0358,0.0365,0.0349,0.0369,0.0371,0.0374,0.0376,0.0356,0.0357,0.0349,0.0349,0.0349,0,0,0.0282,0.0292,0.0299,0.0314,0.0321,0.0334,0.0328,0.0341,0.0353,0.0344,0.0364,0.0361,0.0357,0.0368,0.0371,0.0366,0.0367,0.0374,0.0376,0.0378,0.0356,0.0357,0.0358,0.0349,0.0349,0.0349,0,0,0.0293,0.0302,0.0318,0.0327,0.034,0.0344,0.0348,0.0358,0.0367,0.0381,0.0377,0.0378,0.0386,0.0385,0.0384,0.0397,0.038,0.0398,0.0415,0.0395,0.0396,0.0396,0.0378,0.0376,0.0399,0.0399,0.0399,0,0.0295,0.0318,0.0323,0.0339,0.035,0.0349,0.0367,0.0374,0.0387,0.0394,0.0392,0.0398,0.0393,0.04,0.0408,0.0403,0.0389,0.0407,0.0399,0.0398,0.0398,0.0379,0.0377,0.0401,0.0401,0.0401,0.04,0,0.0319,0.0337,0.0347,0.037,0.038,0.0395,0.0403,0.0414,0.042,0.0426,0.0436,0.0429,0.0431,0.0429,0.0425,0.0424,0.0414,0.0404,0.0393,0.0401,0.0381,0.0378,0.0403,0.0402,0.0402,0.0402,0,0,0.0323,0.0358,0.0362,0.038,0.0399,0.0411,0.0429,0.0446,0.046,0.0465,0.0478,0.0477,0.047,0.0468,0.0457,0.0441,0.0428,0.0427,0.0425,0.0411,0.0386,0.0372,0.0367,0.0416,0.0416,0.0416,0.0373,0,0.0341,0.0378,0.0391,0.0425,0.0444,0.0452,0.047,0.0483,0.0492,0.0503,0.0491,0.05,0.0485,0.0487,0.0469,0.044,0.0422,0.044,0.0378,0.0376,0.0364,0.0364,0.0415,0.0371,0.037,0.0369,0.0369,0,0.0361,0.0385,0.0422,0.0458,0.0467,0.0487,0.0514,0.0532,0.0542,0.0546,0.0546,0.0536,0.0523,0.0504,0.0455,0.0469,0.0432,0.0403,0.04,0.0375,0.0357,0.036,0.0364,0.0364,0.0364,0.0365,0.0365,0,0.0363,0.0406,0.0439,0.0452,0.0489,0.0509,0.0529,0.0547,0.0567,0.0575,0.0582,0.0562,0.0554,0.0507,0.0455,0.0454,0.0393,0.0382,0.0331,0.033,0.0342,0.0342,0.0339,0.0339,0.0339,0.034,0.034,0,0.0376,0.0402,0.0446,0.0465,0.0504,0.0526,0.0565,0.0577,0.0599,0.0621,0.0606,0.0607,0.0554,0.0515,0.0461,0.039,0.0396,0.0334,0.0317,0.0356,0.0358,0.034,0.0341,0.0338,0.0338,0.0339,0.0339,0,0.0371,0.04,0.0441,0.0489,0.0507,0.0536,0.059,0.0616,0.0632,0.0657,0.066,0.0641,0.0593,0.0532,0.0454,0.04,0.0332,0.0303,0.0353,0.034,0.028,0.0283,0.0243,0.0242,0.0241,0.024,0.024,0,0.0371,0.0393,0.0455,0.0483,0.0509,0.0557,0.0591,0.0628,0.0655,0.0674,0.0682,0.0651,0.0627,0.0505,0.0441,0.0335,0.0316,0.0274,0.0273,0.0282,0.027,0.0274,0.0277,0.0239,0.0238,0.0238,0.0238,0,0.037,0.0395,0.0428,0.0484,0.053,0.0581,0.0632,0.0651,0.0691,0.0705,0.0691,0.0638,0.0582,0.0499,0.0419,0.0342,0.0298,0.0266,0.0266,0.0266,0.0277,0.0266,0.0271,0.0236,0.0236,0.0236,0.0236,0,0.0368,0.0389,0.0435,0.0485,0.054,0.0592,0.0621,0.0654,0.0681,0.07,0.0692,0.0639,0.0614,0.0502,0.0428,0.0354,0.0329,0.029,0.0289,0.0291,0.0317,0.0339,0.0302,0,0,0,0,0,0.0365,0.0392,0.0433,0.049,0.0545,0.0583,0.0642,0.0669,0.0702,0.069,0.0693,0.064,0.0535,0.0496,0.0417,0.0412,0.0317,0.0315,0.0271,0.0221,0.0224,0.0246,0,0,0,0,0,0,0.0364,0.0402,0.0426,0.0486,0.0527,0.0591,0.0633,0.0659,0.0653,0.067,0.0618,0.0602,0.0506,0.0578,0.0409,0.039,0.0345,0.0275,0.0273,0.022,0.0222,0.0225,0.0248,0,0,0,0,0]}]]